Thu, 13 May 2021 12:48:53 UTC

Information for RPM lzo-2.08-12.fc28.ppc64le.rpm

ID12667502
Namelzo
Version2.08
Release12.fc28
Epoch
Archppc64le
SummaryData compression library with very fast (de)compression
DescriptionLZO is a portable lossless data compression library written in ANSI C. It offers pretty fast compression and very fast decompression. Decompression requires no memory. In addition there are slower compression levels achieving a quite competitive compression ratio while still decompressing at this very high speed.
Build Time2018-02-03 12:40:47 GMT
Size69,504
1744f50558fc26a1d3f9b7531e9bed7e
LicenseGPLv2+
Buildrootf28-build-11295657-849777
Provides
liblzo2.so.2()(64bit)
lzo = 2.08-12.fc28
lzo(ppc-64) = 2.08-12.fc28
Obsoletes No Obsoletes
Conflicts No Conflicts
Requires
libc.so.6()(64bit)
libc.so.6(GLIBC_2.17)(64bit)
rpmlib(CompressedFileNames) <= 3.0.4-1
rpmlib(FileDigests) <= 4.6.0-1
rpmlib(PayloadFilesHavePrefix) <= 4.0-1
rpmlib(PayloadIsXz) <= 5.2-1
rtld(GNU_HASH)
Recommends No Recommends
Suggests No Suggests
Supplements No Supplements
Enhances No Enhances
Files
1 through 11 of 11
Name ascending sort Size
/usr/lib/.build-id0
/usr/lib/.build-id/e00
/usr/lib/.build-id/e0/42334580fb9bb6ee01ab482208621823a1296338
/usr/lib64/liblzo2.so.216
/usr/lib64/liblzo2.so.2.0.0220,296
/usr/share/doc/lzo0
/usr/share/doc/lzo/AUTHORS112
/usr/share/doc/lzo/NEWS12,279
/usr/share/doc/lzo/THANKS690
/usr/share/licenses/lzo0
/usr/share/licenses/lzo/COPYING18,092
Component of
Page:
1 through 50 of 4175 >>>
Buildroot descending sort Created State
f28-build-16365254-1170814 2019-05-28 02:09:24 expired
f28-build-16364952-1170814 2019-05-28 00:16:39 expired
f28-build-16362939-1169927 2019-05-27 18:34:22 expired
f28-build-16356753-1169927 2019-05-27 05:22:32 expired
f28-build-16355323-1169927 2019-05-27 00:16:40 expired
f28-build-16353456-1169682 2019-05-26 19:53:43 expired
f28-build-16353242-1169682 2019-05-26 19:30:03 expired
f28-build-16347480-1169682 2019-05-26 04:22:29 expired
f28-build-16346738-1169682 2019-05-26 01:22:00 expired
f28-build-16336192-1169346 2019-05-25 03:21:52 expired
f28-build-16335956-1169346 2019-05-25 02:29:56 expired
f28-build-16335524-1169346 2019-05-25 00:17:00 expired
f28-build-16331870-1168485 2019-05-24 15:42:38 expired
f28-build-16327022-1168485 2019-05-24 06:27:11 expired
f28-build-16325693-1168485 2019-05-24 02:17:51 expired
f28-build-16325680-1168485 2019-05-24 02:17:08 expired
f28-build-16322956-1168485 2019-05-23 18:33:40 expired
f28-build-16322685-1168485 2019-05-23 17:15:56 expired
f28-build-16315770-1167552 2019-05-22 23:04:02 expired
f28-build-16312008-1167552 2019-05-22 07:37:04 expired
f28-build-16310120-1167485 2019-05-22 01:51:44 expired
f28-build-16306527-1167231 2019-05-21 16:09:09 expired
f28-build-16306315-1167231 2019-05-21 15:21:13 expired
f28-build-16306308-1167231 2019-05-21 15:20:51 expired
f28-build-16305296-1166767 2019-05-21 12:59:23 expired
f28-build-16299666-1166767 2019-05-21 02:06:29 expired
f28-build-16298956-1166767 2019-05-21 00:24:02 expired
f28-build-16298799-1166767 2019-05-21 00:11:17 expired
f28-build-16298211-1166245 2019-05-20 22:47:29 expired
f28-build-16297617-1166245 2019-05-20 21:20:19 expired
f28-build-16292713-1166245 2019-05-20 09:51:08 expired
f28-build-16289654-1166245 2019-05-20 04:27:37 expired
f28-build-16288676-1166144 2019-05-20 01:03:39 expired
f28-build-16282850-1165893 2019-05-19 15:46:36 expired
f28-build-16276773-1165782 2019-05-19 03:25:53 expired
f28-build-16276756-1165782 2019-05-19 03:23:11 expired
f28-build-16275414-1165452 2019-05-19 00:57:25 expired
f28-build-16272400-1165452 2019-05-18 19:16:12 expired
f28-build-16271864-1165452 2019-05-18 18:13:49 expired
f28-build-16267579-1165452 2019-05-18 09:57:59 expired
f28-build-16266508-1165452 2019-05-18 06:35:59 expired
f28-build-16265733-1165452 2019-05-18 03:39:28 expired
f28-build-16265426-1165380 2019-05-18 01:10:37 expired
f28-build-16259071-1164538 2019-05-17 01:37:43 expired
f28-build-16259055-1164538 2019-05-17 01:34:00 expired
f28-build-16258953-1164538 2019-05-17 00:24:06 expired
f28-build-16258655-1164500 2019-05-16 21:15:39 expired
f28-build-16256507-1164065 2019-05-16 06:31:55 expired
f28-build-16255849-1163878 2019-05-16 02:29:51 expired
f28-build-16255693-1163878 2019-05-16 01:10:08 expired